Probability
9 10 11 10 7 6 5 6 6 3 1 2 3 3 3 4 5 5 6 8 9 11 12 8 6 7 11 13 11 9 9 10 10 10 10 10 11 13 14 13 12 12 11
6 7 7 6 5 4 4 4 4 3 1 1 1 2 2 2 3 4 4 6 7 9 11 10 7 8 11 13 12 9 8 8 8 9 10 11 13 16 16 14 13 12 10
4 4 4 3 3 3 3 3 3 3 2 1 1 2 2 1 1 2 2 3 3 4 7 9 8 8 10 12 12 10 8 6 5 6 9 11 13 16 17 15 13 12 10
4 4 3 3 3 3 3 3 3 3 3 3 3 3 2 1 0 0 1 1 1 1 2 5 7 7 8 9 11 12 10 6 5 6 9 11 12 15 16 15 14 12 11
4 4 4 3 3 3 3 3 3 3 3 3 3 3 2 1 0 0 0 0 0 0 1 2 4 5 5 7 10 12 12 9 8 9 11 11 11 13 15 15 13 12 11
4 4 3 3 3 3 3 3 3 3 3 3 3 2 2 1 0 0 0 0 0 0 1 2 3 4 4 5 7 9 12 13 11 11 10 9 9 11 13 13 10 10 10
3 3 3 3 3 3 3 3 3 4 4 2 1 1 1 0 0 0 0 0 0 0 1 2 3 3 3 3 4 6 11 13 12 10 9 8 8 10 11 10 9 9 9
1 2 3 3 3 3 3 3 4 4 4 2 0 0 0 0 0 0 0 0 0 0 0 1 2 2 3 3 2 4 9 12 11 9 9 9 9 9 8 9 9 9 8
1 1 2 3 3 3 3 3 3 3 2 1 0 0 0 0 0 0 0 0 0 0 0 0 1 1 1 2 2 3 7 12 12 10 9 10 11 10 8 8 8 9 9
2 1 1 1 2 3 3 3 3 1 1 0 0 0 0 0 0 0 0 0 0 0 0 0 0 1 1 1 1 2 4 8 10 10 10 12 12 11 9 7 7 8 9
2 1 0 0 1 1 2 3 3 1 0 0 0 0 0 0 0 0 0 0 0 0 0 0 0 0 0 0 0 0 1 3 6 8 10 12 13 13 11 10 8 8 9
2 1 0 0 0 0 1 2 2 1 0 0 0 1 0 0 0 0 0 0 0 0 0 0 0 0 0 0 0 0 0 0 2 4 6 9 11 12 12 11 9 7 7
1 0 0 0 0 0 0 1 1 1 1 1 1 1 0 0 0 0 0 0 0 0 0 0 0 0 0 0 0 0 0 0 0 1 2 5 7 8 9 9 8 6 4
0 0 0 0 0 0 0 0 0 0 1 2 1 0 0 0 0 0 0 0 0 0 0 0 0 0 0 0 0 0 0 0 0 0 0 2 4 5 6 7 6 3 2
0 0 0 1 0 0 0 0 0 0 1 1 1 0 0 0 0 0 0 0 0 0 0 0 0 0 0 0 0 0 0 0 0 0 0 0 2 3 4 4 3 1 1
0 0 0 0 0 0 0 0 0 0 0 0 0 0 0 0 0 0 0 0 0 0 0 0 0 0 0 0 0 0 0 0 0 0 0 0 0 1 1 1 1 0 0
0 0 0 0 0 0 0 0 0 0 0 0 0 0 0 0 0 0 0 0 0 0 0 0 0 0 0 0 0 0 0 0 0 0 0 0 0 0 0 0 0 0 0
0 0 0 0 0 0 0 0 0 0 0 0 0 0 0 0 0 0 0 0 0 0 0 0 0 0 0 0 0 0 0 0 0 0 0 0 0 0 0 0 0 0 0
0 0 0 0 0 0 0 0 0 0 0 0 0 0 0 0 0 0 0 0 0 0 0 0 0 0 0 0 0 0 0 0 0 0 0 0 0 0 0 0 0 0 0
0 0 0 0 0 0 0 0 0 0 0 0 0 0 0 0 0 0 0 0 0 0 0 0 0 0 0 0 0 0 0 0 0 0 0 0 0 0 0 0 0 0 0
0 0 0 0 0 0 0 0 0 0 0 0 0 0 0 0 0 0 0 0 0 0 0 0 0 0 0 0 0 0 0 0 0 0 0 0 0 0 0 0 0 0 0
0 0 0 0 0 0 0 0 0 0 0 0 0 0 0 0 0 0 0 0 0 0 0 0 0 0 0 0 0 0 0 0 0 0 0 0 0 0 0 0 0 0 0
0 0 0 0 0 0 0 0 0 0 0 0 0 0 0 0 0 0 0 0 0 0 0 0 0 0 0 0 0 0 0 0 0 0 0 0 0 0 0 0 0 0 0
0 0 0 0 0 0 0 0 0 0 0 0 0 0 0 0 0 0 0 0 0 0 0 0 0 0 0 0 0 0 0 0 0 0 0 0 0 0 0 0 0 0 0
0 0 0 0 0 0 0 0 0 0 0 0 0 0 0 0 0 0 0 0 0 0 0 0 0 0 0 0 0 0 0 0 0 0 0 0 0 0 0 0 0 0 0
0 0 0 0 0 0 0 0 0 0 0 0 0 0 0 0 0 0 0 0 0 0 0 0 0 0 0 0 0 0 0 0 0 0 0 0 0 0 0 1 1 1 0
Wind_Speed
2 1 1 1 0 0 0 0 0 0 1 1 1 1 1 1 2 2 1 4 4 5 5 5 6 6 6 6 6 7 7 7 6 6 6 6 7 7 7 7 7 6 7
2 2 1 1 0 0 1 0 0 0 0 0 1 1 1 1 1 2 2 2 3 4 5 5 5 5 5 6 6 6 7 7 7 7 7 6 7 7 7 7 7 7 7
2 2 2 1 1 0 1 1 0 0 0 0 1 1 0 1 1 2 2 1 2 4 6 6 5 5 5 5 5 6 6 7 7 7 8 8 7 7 8 8 8 7 7
3 2 2 1 1 1 1 1 1 0 0 0 1 1 1 1 1 1 1 2 2 2 4 6 6 6 6 6 5 5 5 6 7 8 8 8 8 8 8 8 7 8 7
3 2 2 1 1 1 1 1 1 1 1 0 1 1 1 1 1 1 1 2 2 2 2 4 6 6 6 6 6 6 6 6 7 8 8 8 7 7 7 8 8 8 8
2 2 2 2 1 1 0 1 1 1 1 0 0 1 1 1 1 1 2 1 2 2 2 3 3 4 5 6 7 8 8 8 7 8 8 8 8 7 7 7 7 8 8
2 2 2 1 1 1 1 1 1 1 0 0 1 2 2 1 1 1 1 1 2 2 2 3 2 2 3 6 7 7 8 8 7 7 8 8 8 7 7 7 7 7 7
2 2 2 2 2 2 1 1 1 1 0 1 2 1 2 2 2 2 1 1 2 2 2 2 2 2 2 2 3 6 6 6 6 6 6 6 6 6 7 7 7 7 7
2 2 2 2 2 2 2 2 2 2 1 0 1 2 2 1 2 2 2 1 1 1 2 2 2 2 3 3 3 5 6 6 7 7 6 5 5 5 6 6 7 7 7
2 2 2 2 2 2 2 2 2 2 2 1 0 1 1 2 1 1 2 2 2 2 2 2 2 2 3 3 4 6 6 6 6 7 7 6 6 6 7 7 7 7 8
1 2 2 2 2 2 2 2 2 2 2 2 2 2 1 1 1 1 2 2 2 2 2 2 2 2 3 3 3 5 6 6 6 6 7 7 7 7 7 8 7 7 8
1 2 2 2 3 2 2 3 2 3 2 2 2 2 2 2 2 2 2 2 2 2 2 2 2 2 3 3 4 5 5 5 6 6 6 6 6 6 6 7 7 8 7
1 2 3 3 3 3 2 2 2 2 2 3 3 2 2 2 2 2 2 2 2 2 2 2 2 2 3 2 3 5 4 4 4 4 5 6 6 6 7 7 8 8 9
2 2 3 2 2 2 2 2 2 2 2 2 2 2 2 2 2 2 3 2 1 2 2 3 2 2 3 3 3 4 3 4 4 5 5 5 6 6 7 8 8 8 8
2 2 2 2 2 2 2 2 2 1 2 2 2 2 1 1 1 2 2 2 2 2 3 3 2 2 3 2 3 3 3 4 5 5 5 5 6 6 7 7 7 8 8
1 2 2 2 1 2 2 2 2 2 2 2 1 1 1 1 1 1 2 2 2 3 3 2 3 3 3 3 3 3 3 5 5 5 5 6 6 7 7 7 7 7 8
2 2 2 2 2 1 2 2 2 2 2 1 1 2 2 1 1 1 1 2 2 3 4 3 2 3 3 3 4 3 3 3 4 6 6 7 7 7 7 7 7 7 8
1 2 2 2 2 2 2 2 2 2 2 2 2 2 2 1 1 1 1 1 2 3 3 4 3 3 3 3 3 4 4 3 4 5 6 7 7 8 8 8 8 8 8
1 1 1 2 2 2 2 2 2 2 2 3 3 3 3 2 2 1 2 2 2 2 2 3 3 2 2 2 3 3 4 3 4 4 5 6 7 7 8 8 8 8 8
2 1 1 2 2 2 2 2 1 1 1 2 2 3 3 3 4 3 2 3 2 2 2 2 3 3 3 2 2 3 3 3 4 4 4 5 6 7 8 9 9 9 9
2 1 1 1 1 2 2 2 2 2 2 2 2 3 3 4 4 4 3 3 3 2 2 2 3 2 3 2 3 2 3 4 4 3 3 3 4 4 5 7 8 9 10
1 1 1 2 1 2 2 3 2 2 2 2 2 3 3 3 4 4 5 5 5 4 3 3 3 3 4 4 3 3 3 3 4 2 3 4 3 4 5 5 7 9 9
1 1 1 2 2 3 3 4 4 3 3 3 3 2 2 2 3 3 4 4 5 6 6 5 5 5 5 4 3 4 4 4 5 3 2 5 4 5 5 5 8 9 9
2 2 2 2 2 3 3 4 3 2 2 3 3 3 3 4 3 3 3 3 4 4 5 5 6 6 6 5 5 4 4 5 5 4 3 4 4 4 5 4 6 8 9
2 2 2 2 2 3 4 4 3 1 2 3 3 3 3 4 5 3 2 3 4 5 5 5 6 7 7 7 5 3 3 3 4 4 2 3 3 4 4 4 5 7 8
3 2 2 2 3 4 4 4 4 2 2 3 3 3 4 5 5 4 3 4 5 5 4 4 4 5 5 5 5 5 5 4 4 4 2 3 3 2 3 3 3 3 4
Wind_Direction
143 134 132 107 66 95 105 52 42 10 343 334 277 237 222 215 224 219 230 230 229 229 233 231 226 223 219 214 214 217 222 227 223 218 215 209 207 206 206 207 207 208 209
139 135 128 123 151 162 159 157 215 209 270 309 315 301 260 235 221 216 218 239 241 239 239 239 237 232 227 220 218 222 224 221 222 220 217 215 214 213 212 211 213 212 212
149 149 150 151 200 164 145 136 101 171 105 52 334 318 296 270 238 230 225 228 245 245 243 243 244 238 232 224 219 223 224 222 222 224 222 220 221 221 220 219 219 220 219
156 141 141 166 184 142 144 148 135 91 51 36 322 305 312 281 256 239 230 228 234 244 251 249 250 246 237 232 230 227 224 222 224 226 226 223 225 226 225 223 225 226 225
160 150 157 165 156 138 147 169 126 148 163 293 271 292 305 287 274 262 254 240 234 239 249 260 255 252 243 239 238 233 231 229 227 226 229 226 228 228 228 228 226 226 225
160 153 160 160 146 132 128 121 141 136 166 216 316 346 331 300 295 286 273 267 252 245 242 250 256 263 253 250 249 243 237 233 232 227 229 231 230 229 229 229 229 226 227
161 160 173 154 149 160 183 168 145 111 39 58 60 357 339 333 322 308 288 284 282 270 251 247 247 251 260 255 258 251 243 240 240 234 228 232 232 232 232 230 230 230 230
174 177 168 175 177 163 160 171 154 145 154 130 125 91 347 340 340 335 318 283 290 284 268 254 254 252 254 252 265 257 252 246 242 241 234 226 225 233 238 238 233 233 234
186 179 180 179 181 173 185 194 186 168 182 143 120 145 153 239 307 320 328 335 329 317 296 286 274 262 254 247 256 260 253 251 247 247 249 242 234 234 238 242 242 239 238
189 183 184 177 183 181 185 198 184 186 170 188 164 164 169 169 182 299 315 324 325 320 309 306 302 283 272 264 259 257 251 251 248 247 247 246 242 239 236 239 245 246 245
203 186 187 185 191 190 191 192 184 185 181 189 187 178 167 160 188 204 276 304 310 298 300 301 301 300 293 281 271 261 253 249 249 248 247 248 247 244 239 237 240 245 248
217 205 199 201 199 195 196 198 192 190 195 190 191 182 178 178 189 191 229 266 283 287 290 291 294 299 301 295 285 287 271 259 253 249 249 253 256 250 243 242 244 243 248
220 217 207 208 205 203 198 186 186 201 193 187 193 199 195 201 188 182 199 237 266 284 289 276 272 285 293 299 293 300 288 275 262 257 251 252 255 254 251 252 254 252 250
220 211 200 205 204 194 182 167 169 194 188 189 193 192 191 207 197 191 189 195 250 279 282 278 282 271 283 288 293 294 286 287 269 260 250 245 250 255 253 254 256 257 256
220 203 195 187 184 181 177 161 169 189 180 192 197 191 197 220 211 208 199 195 197 244 269 275 279 286 284 275 289 285 281 287 280 271 254 246 252 255 256 257 255 254 253
210 193 185 162 169 182 182 170 177 192 182 207 197 179 201 225 213 204 202 204 206 213 248 262 262 283 289 288 296 290 283 289 284 275 256 249 251 255 257 256 253 252 251
191 190 185 170 177 193 193 174 183 184 191 207 205 196 215 206 198 215 203 205 215 212 240 266 263 278 274 286 302 300 288 276 273 266 260 256 255 256 257 256 257 258 256
204 194 182 172 194 204 197 190 205 193 191 205 216 205 223 207 207 222 208 221 229 217 225 259 278 284 278 287 294 293 296 287 276 271 264 260 258 256 254 251 251 251 252
204 181 169 183 197 193 186 200 207 206 211 216 210 208 221 204 227 236 232 235 239 238 227 241 271 276 278 289 298 294 296 294 289 285 273 263 260 260 256 252 250 248 247
187 191 191 200 207 203 195 190 183 191 228 236 224 221 222 213 219 225 232 236 231 240 245 252 265 275 275 284 275 290 301 300 292 295 290 278 266 263 262 257 254 252 248
188 187 186 198 201 199 198 186 194 198 210 241 246 241 240 232 230 226 228 226 218 232 250 258 266 275 280 282 277 276 287 297 283 273 284 276 273 269 266 258 253 252 249
188 173 180 192 211 223 204 200 195 205 211 224 246 260 260 252 252 247 245 238 227 230 242 244 253 264 269 265 268 268 281 292 287 263 271 280 272 271 266 257 253 251 248
195 197 214 204 224 236 215 210 209 194 210 227 239 251 258 262 253 252 264 266 256 251 234 224 239 251 257 255 257 266 260 265 268 274 270 277 276 271 271 267 259 254 252
214 223 234 231 238 249 228 217 209 199 224 246 246 242 245 264 260 249 254 267 273 268 254 238 236 248 253 252 239 251 264 273 273 263 238 263 272 269 273 270 263 255 254
224 228 229 224 230 254 238 219 197 200 241 265 264 251 242 253 264 250 241 262 279 285 277 262 254 258 260 258 243 237 251 264 281 278 227 248 270 275 270 262 259 254 252
227 227 233 232 230 247 245 225 199 197 235 263 274 268 252 252 260 240 227 238 264 278 293 301 293 285 273 265 238 225 232 243 264 273 232 229 261 279 279 257 259 260 255